アトラス彗星

C/2024 J3 ( ATLAS )

English version
Home page
Updated on October 1, 2025

---------------------------------------------------------------------

・ プロフィール

発見日 2024年5月6日
発見光度 17.6等
発見者 Asteroid Terrestrial-Impact Last Alert System (ATLAS) search program

・ 写真集

・ 軌道要素

Epoch 2025 May 5.0 TT = JDT 2460800.5
T 2026 Nov. 25.31982 TT                                 Pike
q   3.8651277            (2000.0)            P               Q
z  -0.0002033      Peri.   74.08876     +0.30471501     -0.19907697
 +/-0.0000023      Node   285.96123     -0.55223489     +0.75982813
e   1.0007859      Incl.   75.63927     +0.77600605     +0.61889383
From 740 observations 2024 May 6-2025 Aug. 6, mean residual 0".5.

・ 星図

・ 光度変化

        m1 = 4.2 + 5 logΔ + 10.0 log r

---------------------------------------------------------------------

軌道要素はM.P.E.C. 2025-P113に掲載されたものです。
星図はステラナビゲータ Ver.11 (アストロアーツ) で作成したものです。
光度グラフはComet for Windowsで作成したものです。

---------------------------------------------------------------------

Copyright(C) Seiichi Yoshida (comet@aerith.net). All rights reserved.